Tracking 19149 objects as of 20-Apr-2018
HD Live streaming from Space Station
objects crossing your sky now

CS 3B

Track CS 3B now!
CS 3B is classified as:


NORAD ID: 19508
Int'l Code: 1988-086A
Perigee: 36,052.8 km
Apogee: 36,125.3 km
Inclination: 14.9 °
Period: 1,451.2 minutes
Semi major axis: 42460 km
RCS: 6.3096 m2 (large)
Launch date: September 16, 1988
Source: Japan (JPN)
Launch site: TANEGASHIMA SPACE CENTER (TNSTA)
aabbcc
Your satellite tracking list
Your tracking list is empty




NASA's NSSDC Master Catalog

Two Line Element Set (TLE):
1 19508U 88086A   18109.01646362 -.00000231 +00000-0 +00000-0 0  9997
2 19508 014.8594 018.4681 0008530 285.9999 257.8336 00.99227474107670
Source of the keplerian elements: AFSPC